Weather History for KUGN - January, 2013

Change the Weather History Date:

Monday, January 14, 2013

  Actual Average Record
Temperature  
Mean Temperature 18 °F -  
Max Temperature 25 °F 30 °F 45 °F (2002)
Min Temperature 11 °F 15 °F -4 °F (2015)
Degree Days  
Heating Degree Days 47 42  
Month to date heating degree days 518 579  
Since 1 July heating degree days 2897 3128  
Cooling Degree Days 0 0  
Month to date cooling degree days 0 0  
Year to date cooling degree days 0 0  
Moisture  
Dew Point 8 °F    
Average Humidity 67    
Maximum Humidity 83    
Minimum Humidity 50    
Precipitation  
Precipitation 0.04 in 0.04 in 0.14 in (2001)
Month to date precipitation 0.89 0.60  
Year to date precipitation 0.89 0.60  
Sea Level Pressure  
Sea Level Pressure 30.44 in    
Wind  
Wind Speed 5 mph (WSW)    
Max Wind Speed 12 mph    
Max Gust Speed 16 mph    
Visibility 10 miles    
Events      
T = Trace of Precipitation, MM = Missing Value Source: NWS Daily Summary

Daily Weather History Graph

Daily Weather History Graph

Search for Another Location

Airport or City:

Trip Planner

Search our weather history database for the weather conditions in past years. The results will help you decide how hot, cold, wet, or windy it might be!

Date:

Astronomy

Jan. 14, 2013 Rise Set
Actual Time 7:18 AM CST 4:43 PM CST
Civil Twilight 6:47 AM CST 5:14 PM CST
Nautical Twilight 6:12 AM CST 5:49 PM CST
Astronomical Twilight 5:38 AM CST 6:22 PM CST
Moon 8:47 AM CST (1/14) 8:33 PM CST (1/14)
Length of Visible Light 10h 26m
Length of Day
9h 24m
Waxing Crescent, 11% of the Moon is Illuminated
Jan 14
Waxing Crescent
Jan 18
First Quarter
Jan 26
Full
Feb 3
Last Quarter
Feb 10
New

Hourly Weather History & Observations

Time (CST) Temp. Windchill Dew Point Humidity Pressure Visibility Wind Dir Wind Speed Gust Speed Precip Events Conditions
12:52 AM 14.0 °F 2.0 °F 6.1 °F 71% 30.29 in 10.0 mi WNW 9.2 mph - 0.02 in   Overcast
1:32 AM 12.2 °F 2.9 °F 6.8 °F 79% 30.25 in 10.0 mi West 5.8 mph - 0.01 in   Scattered Clouds
1:52 AM 12.9 °F 3.8 °F 5.0 °F 71% 30.33 in 10.0 mi West 5.8 mph - 0.02 in   Clear
3:52 AM 12.0 °F 5.9 °F 6.1 °F 77% 30.38 in 10.0 mi SW 3.5 mph - N/A   Clear
4:52 AM 12.0 °F - 6.1 °F 77% 30.40 in 10.0 mi Calm Calm - N/A   Clear
6:52 AM 10.9 °F 1.4 °F 6.1 °F 81% 30.48 in 10.0 mi West 5.8 mph - N/A   Clear
7:52 AM 10.9 °F 1.4 °F 6.1 °F 81% 30.49 in 10.0 mi West 5.8 mph - N/A   Clear
8:52 AM 14.0 °F 2.9 °F 7.0 °F 74% 30.47 in 10.0 mi West 8.1 mph - N/A   Clear
9:52 AM 16.0 °F 5.3 °F 8.1 °F 71% 30.47 in 10.0 mi West 8.1 mph - N/A   Clear
10:52 AM 19.9 °F 10.1 °F 9.0 °F 62% 30.45 in 10.0 mi West 8.1 mph - N/A   Clear
11:52 AM 21.9 °F 15.7 °F 9.0 °F 58% 30.45 in 10.0 mi Variable 4.6 mph - N/A   Clear
12:52 PM 23.0 °F 14.7 °F 8.1 °F 53% 30.45 in 10.0 mi West 6.9 mph - N/A   Clear
2:52 PM 25.0 °F 18.1 °F 9.0 °F 51% 30.48 in 10.0 mi SSW 5.8 mph - N/A   Clear
3:52 PM 24.1 °F 17.0 °F 9.0 °F 53% 30.48 in 10.0 mi SSW 5.8 mph - N/A   Clear
4:52 PM 21.0 °F - 10.9 °F 65% 30.48 in 10.0 mi Calm Calm - N/A   Clear
5:52 PM 19.0 °F 13.9 °F 10.0 °F 68% 30.47 in 10.0 mi SW 3.5 mph - N/A   Clear
6:52 PM 17.1 °F - 10.9 °F 77% 30.48 in 10.0 mi Calm Calm - N/A   Clear
7:52 PM 19.0 °F 13.9 °F 10.0 °F 68% 30.48 in 10.0 mi SW 3.5 mph - N/A   Clear
8:52 PM 18.0 °F 12.7 °F 10.0 °F 71% 30.46 in 10.0 mi West 3.5 mph - N/A   Clear
9:52 PM 17.1 °F 10.0 °F 10.0 °F 74% 30.47 in 10.0 mi WSW 4.6 mph - N/A   Clear
10:52 PM 17.1 °F 11.7 °F 9.0 °F 71% 30.45 in 10.0 mi WSW 3.5 mph - N/A   Clear
11:52 PM 16.0 °F 10.4 °F 10.0 °F 77% 30.47 in 10.0 mi WSW 3.5 mph - N/A   Clear